Location: Canyon City
(32.5951°N, 116.5278°W)
Time: 02:00:40
(UTC+00:00)

Cosmos 1606 Rocket - Pass Details

Date: 08 September 2024
Orbit: 599 x 626 km, 82.5° (Epoch: 10 October)

Event Time Altitude Azimuth Distance (km) Brightness Sun altitude
Rises 12:27:24 0° 195° (SSW) 2,834 6.7 -12.9°
Reaches altitude 10° 12:29:38 10° 200° (SSW) 1,938 5.8 -12.4°
Maximum altitude 12:33:50 55° 278° (W) 728 3.6 -11.6°
Drops below altitude 10° 12:38:06 10° 357° (N) 1,964 6.3 -10.7°
Sets 12:40:22 0° 1° (N) 2,876 7.2 -10.3°
